Torna al catalogo

USA 410

AttivoMilitareVLEO
NORAD 61031·PAYLOAD·🇺🇸 United States

Lanciato Sep 6, 2024 da Vandenberg Space Force Base

Loading…

Prossimi Passaggi (prossime 24 ore)

TLE

ObsoletoSource: Mike McCants

Epoca: Aug 25, 2026, 22:33 UTC

1 61031U 24160L   26237.94015148 0.00000000  00000-0  00000-0 0    09
2 61031  70.0267 181.8094 0003000 257.6002 102.3998 14.96713400    08

Traccia USA 410 in tempo reale con AllMySat

Download on the App Store